Погода в Щербаковке

Россия / Челябинская область     56°11′21″N   60°54′47″E
темп.,
°C
ветер,
м/с
пор.,
м/с
влажн.,
%
обл.,
%
осадки,
мм/ч
давл.,
гПа
погр.,
м
18 апреля, вс
вс1823:00+5сз25655 0.0 102184
02:00+3зсз23740 0.0 101957
05:00+2зсз310775 0.0 1019215
08:00+5зсз512654 0.0 1017725
11:00+6с7973100 0.1 10181250
14:00+4ссв6947100 0.2 10221615
17:00+4св6735100 0.2 10252164
20:00+1св594060 0.0 1028899
19 апреля, пн
пн1923:00−2всв49450 0.0 1031721
02:00−3всв37460 0.0 1032714
05:00−4всв24510 0.0 1034272
08:00−3всв36390 0.0 10351219
11:000всв45325 0.0 10351640
14:00+2св453060 0.0 10341999
17:00+3всв343196 0.0 10342066
20:00−1в21475 0.0 103411
20 апреля, вт
вт2023:00−3ююз11530 0.0 103510
02:00−3зюз22560 0.0 103529
05:00−3з24555 0.0 1035101
08:000зсз47415 0.0 1034414
11:00+5зсз463240 0.0 10331448
14:00+8сз56280 0.0 10301706
17:00+8сз57320 0.0 10291679
20:00+4зсз38530 0.0 1030171
21 апреля, ср
ср2123:00+1сз310660 0.0 1030213
02:000сз37740 0.0 1031128
05:00−1сз25771 0.0 103284
08:00+3ссз35620 0.0 1033275
11:00+8ссв23505 0.0 10321035
14:00+11ссв22425 0.0 10321532
17:00+12всв21405 0.0 10321654
20:00+8вюв22575 0.0 103326
22 апреля, чт
чт2223:00+5ю22694 0.0 103419
02:00+4ю22740 0.0 103530
05:00+3ю24810 0.0 103672
08:00+6ю36660 0.0 1036250
11:00+11ю46455 0.0 10351082
14:00+14ю56355 0.0 10341739
17:00+15ю563312 0.0 10331951
20:00+11ююв3753100 0.0 1034154